Content
SEND FEEDBACK

Daily
Averages
Monthly
Summary
United States of America

BOSTON, MASSACHUSETTS


Home > North America > United States > Massachusetts
Elevation: 4 feet     Latitude: 42 22N     Longitude: 071 02W

WEATHER
 
SELECT A DAY
Number of Records: 203,113;   Date Range: 1/1/95 - 9/16/14
 
SHARE

PRINT THIS DATA

[ ← Previous Day ]
WEATHER ALMANAC - MAY 12, 2013
[ Next Day → ]
[ °C ]   °F
Weather ElementAverageHighLow
Temperature61.9 °F72 °F (4:54 pm)53.1 °F (11:54 pm)
Dewpoint50.7 °F59 °F (1:54 am)26.1 °F (9:54 pm)
Humidity70.8 %96 % (8:54 am)32 % (8:54 pm)
Barometer29.65 in29.81 in (11:54 pm)29.57 in (3:54 pm)
Wind Speed9.9 mph20.7 mph (5:54 pm)
Wind Gust33.4 mph (5:54 pm)
Weather ElementAverage
Visibility9.1 mi
Wind DirectionWSW (231 °)

Weather ElementTotal
Precipitation0.05 in
Heating Degree Days2.5 (Base 65)
Growing Degree Days12.6 (Base 50)
Averaged from 30 records on May 12, 2013
WEATHER CONDITIONS BREAKOUT
WIND DIRECTION BREAKOUT
WEATHER BY HOUR - MAY 12, 2013
[ °C ]   °F
Local TimeTemperatureDewpointHumidityBarometerVisibilityWind DirectionWind SpeedGust SpeedPrecipitationEventsConditions
1:54 AM61.0 °F59.0 °F93 %29.67 in8.0 miSouth (170°)6.9 mphOvercast
2:54 AM62.1 °F59.0 °F90 %29.68 in8.0 miSSW (200°)6.9 mphOvercast
3:05 AM62.6 °F59.0 °F88 %29.66 in8.0 miSSW (210°)4.6 mphOvercast
3:54 AM62.1 °F59.0 °F90 %29.65 in10.0 miSSW (210°)5.8 mphOvercast
4:54 AM61.0 °F57.9 °F90 %29.66 in8.0 miSSW (200°)6.9 mphOvercast
5:37 AM60.8 °F57.2 °F88 %29.65 in7.0 miSouth (190°)9.2 mph0.00 inRainLight Rain
5:54 AM60.1 °F57.9 °F93 %29.65 in6.0 miSouth (180°)9.2 mph0.00 inOvercast
6:54 AM60.1 °F57.9 °F93 %29.65 in8.0 miSSW (200°)8.1 mph0.00 inRainLight Rain
7:54 AM60.1 °F57.9 °F93 %29.64 in8.0 miSouth (190°)8.1 mph0.01 inRainLight Rain
8:54 AM60.1 °F59.0 °F96 %29.63 in9.0 miSSW (200°)9.2 mph0.02 inRainLight Rain
9:54 AM61.0 °F59.0 °F93 %29.63 in6.0 miSW (230°)9.2 mph0.00 inRainLight Rain
10:20 AM62.6 °F59.0 °F88 %29.62 in9.0 miSSW (210°)8.1 mph0.00 inOvercast
10:34 AM62.6 °F59.0 °F88 %29.61 in9.0 miSSW (210°)8.1 mph0.00 inOvercast
10:54 AM62.1 °F59.0 °F90 %29.62 in9.0 miSW (230°)9.2 mph0.00 inRainLight Rain
11:41 AM60.8 °F53.6 °F77 %29.61 in10.0 miWNW (300°)10.4 mph0.01 inMostly Cloudy
11:54 AM61.0 °F54.0 °F78 %29.61 in10.0 miNW (310°)8.1 mph0.01 inMostly Cloudy
12:54 PM64.9 °F55.0 °F70 %29.61 in10.0 miWNW (290°)3.5 mphOvercast
1:10 PM64.4 °F55.4 °F73 %29.60 in10.0 miSW (220°)3.5 mphOvercast
1:46 PM64.4 °F57.2 °F77 %29.60 in10.0 miSE (130°)8.1 mphOvercast
1:54 PM63.0 °F57.0 °F81 %29.60 in10.0 miVariable6.9 mphOvercast
2:54 PM68.0 °F48.9 °F50 %29.58 in10.0 miWest (260°)11.5 mphMostly Cloudy
3:54 PM70.0 °F46.9 °F44 %29.57 in10.0 miWest (280°)8.1 mphMostly Cloudy
4:54 PM72.0 °F46.0 °F40 %29.57 in10.0 miWSW (240°)13.8 mph19.6 mphScattered Clouds
5:54 PM66.9 °F45.0 °F45 %29.61 in10.0 miWNW (300°)20.7 mph33.4 mphScattered Clouds
6:54 PM63.0 °F39.0 °F41 %29.66 in10.0 miWNW (300°)19.6 mph26.5 mphMostly Cloudy
7:54 PM60.1 °F34.0 °F38 %29.70 in10.0 miWNW (300°)19.6 mph26.5 mphScattered Clouds
8:54 PM57.9 °F28.0 °F32 %29.73 in10.0 miWNW (290°)17.3 mph27.6 mphPartly Cloudy
9:54 PM55.9 °F26.1 °F32 %29.75 in10.0 miWNW (290°)11.5 mphClear
10:54 PM54.0 °F27.0 °F35 %29.78 in10.0 miWNW (300°)10.4 mphPartly Cloudy
11:54 PM53.1 °F28.0 °F38 %29.81 in10.0 miWNW (290°)15.0 mph20.7 mphClear
Hourly data recorded from KBOS, located miles away from Boston, Massachusetts







STORIES FROM OUR PARTNERS